Location: Altleiningen
(49.5078°N, 8.0741°E)
Time: 04:06:01
(UTC+00:00)

USA 305 - Pass Details

Date: 03 March 2021
Orbit: 564 x 577 km, 54.0° (Epoch: 10 April)

Event Time Altitude Azimuth Distance (km) Brightness Sun altitude
Rises 19:45:01 0° 290° (WNW) 2,783 7.8 -25.0°
Reaches altitude 10° 19:47:20 10° 295° (WNW) 1,881 6.6 -25.3°
Enters shadow 19:50:57 48° 343° (NNW) 752 3.6 -25.9°
